Weather in Ulan Khol

Russia / Republic of Kalmykia     45°26′18″N   46°51′11″E
temp.,
°C
wind,
m/s
gust,
m/s
humid.,
%
clouds,
%
prec.,
mm/h
press.,
hPa
HPBL,
m
26 october, tue
tue2600:00+6nnw355198 0.0 1030174
03:00+4nw4653100 0.0 1031174
06:00+3nw36599 0.0 1032191
09:00+4nnw56520 0.0 1033667
12:00+6nnw44445 0.0 10331158
15:00+7nnw344055 0.0 10321257
18:00+5nw22505 0.0 103424
21:00+4wnw22530 0.0 103413
27 october, wed
wed2700:00+3nnw22550 0.0 103410
03:00+3ene22590 0.0 103311
06:00+2ese22630 0.0 103315
09:00+6ese35544 0.0 1033383
12:00+10se55465 0.0 10311111
15:00+10se66470 0.0 10291020
18:00+7se48650 0.0 1029182
21:00+6se46722 0.0 1028104
28 october, thu
thu2800:00+6ese33770 0.0 102740
03:00+6ese33812 0.0 102622
06:00+7se44760 0.0 102540
09:00+12sse5761100 0.0 10251093
12:00+12se4665100 0.0 1024683
15:00+12se5773100 0.0 1023472
18:00+11ese5883100 0.0 1022267
21:00+11se358524 0.0 1021139
29 october, fri
fri2900:00+10w33865 0.1 102132
03:00+8wnw5860100 0.1 1021127
06:00+7wnw4867100 0.0 1022143
09:00+10wnw6855100 0.0 1024421
12:00+12nw6732100 0.0 1024754
15:00+13nw562795 0.0 1024948
18:00+10nw444172 0.0 102647
21:00+10nw334852 0.0 102724
30 october, sat
sat3000:00+8n345612 0.0 102837
03:00+9n335698 0.0 102923
06:00+8nne335873 0.0 103023
09:00+11ene45615 0.0 1032296
12:00+14ene55535 0.0 1031998
15:00+15e45500 0.0 10311272
18:00+11ese35690 0.0 103288
21:00+9e47820 0.0 1033164